Lexington Weather

Lexington, Massachusetts, USA

38°F
1/23/2020 11:15am 
  • Lexington Conditions: Clear
  • Temperature: 38.1°F / 3.4°CWarmer 6.5°F than last hour.
  • Dew Point: 21.6°FIncreased 0.8°Fsince last hour.
  • Relative Humidity: 51%Decreased 13.0% since last hour.
  • Wind: Calm, 10-min avg: Calm, gust: 1 mph
  • Barometer: 30.33 in Steady
  • Visibility: 10 miles
  • Rain Today: 0.00 in
  •   

Regional Weather Roundup
for Boston / Norton, MA

        
000
ASUS41 KBOX 221110
RWRBOX

REGIONAL WEATHER ROUNDUP
NATIONAL WEATHER SERVICE BOSTON/NORTON MA
600 AM EST WED JAN 22 2020

NOTE:  "FAIR" INDICATES FEW OR NO CLOUDS BELOW 12,000 FEET WITH NO 
SIGNIFICANT WEATHER AND/OR OBSTRUCTIONS TO VISIBILITY.

MAZALL-221200-
EASTERN MASSACHUSETTS
  
CITY           SKY/WX    TMP DP  RH WIND       PRES   REMARKS
BOSTON         FAIR      21   7  54 NW3       30.40S                  
BEVERLY        FAIR      13   2  61 CALM      30.39R                  
LAWRENCE       FAIR       7   2  80 SW5       30.42R WCI  -2          
BEDFORD        FAIR       7   1  76 CALM      30.39R                  
BLUE HILL        N/A     17   6  62 NW6       30.34S WCI   9          
NORWOOD        FAIR       9   0  67 CALM      30.41R                  
MARSHFIELD     FAIR      14   9  79 W5        30.40R WCI   6          
PLYMOUTH       FAIR      11   7  84 CALM      30.40R                  
TAUNTON        FAIR       7   3  84 CALM      30.40R                  
NEW BEDFORD    FAIR       9   5  84 CALM      30.39S                  
$$

MAZALL-221200-
CAPE COD AND THE ISLANDS
  
CITY           SKY/WX    TMP DP  RH WIND       PRES   REMARKS
FALMOUTH       CLEAR     12   5  73 CALM      30.39S                  
HYANNIS        FAIR      13   5  70 CALM      30.38S                  
CHATHAM        FAIR      19  12  74 NW5       30.40S WCI  12          
PROVINCETOWN   FAIR      18  15  88 CALM      30.40S                  
NANTUCKET      FAIR      20  11  68 CALM      30.40R                  
MARTHAS VNYRD  FAIR       8   3  80 CALM      30.40S                  
$$
 
MAZALL-221200-
CENTRAL AND WESTERN MASSACHUSETTS
  
CITY           SKY/WX    TMP DP  RH WIND       PRES   REMARKS
WORCESTER      FAIR      11   2  67 W6        30.33R WCI   1          
FITCHBURG      FAIR       7   1  76 CALM      30.39R                  
ORANGE         FAIR      -1  -7  75 CALM      30.40R                  
SPRINGFIELD    FAIR       1  -4  81 CALM      30.40R                  
WESTFIELD      NOT AVBL                                               
NORTH ADAMS    CLOUDY    23  14  68 W9        30.37S WCI  13          
PITTSFIELD     CLOUDY    21  13  71 VRB5      30.32R WCI  15          
$$
 
RIZALL-221200-
RHODE ISLAND
  
CITY           SKY/WX    TMP DP  RH WIND       PRES   REMARKS
PROVIDENCE     FAIR      14   8  77 W5        30.41R WCI   6          
NEWPORT        FAIR      18  10  71 CALM      30.39R                  
BLOCK ISLAND   FAIR      22  11  62 N3        30.42R                  
SMITHFIELD     FAIR      12   4  70 CALM      30.38R                  
WESTERLY       FAIR      15   8  73 CALM      30.42R                  
$$
 
CTZALL-221200-
CONNECTICUT
  
CITY           SKY/WX    TMP DP  RH WIND       PRES   REMARKS
BRADLEY INTL   FAIR       7   2  80 CALM      30.41R                  
HARTFORD       FAIR      12   7  80 CALM      30.44R                  
BRIDGEPORT     FAIR      18  10  71 N6        30.44R WCI  10          
DANBURY        FAIR       8   4  83 SW3       30.42R                  
GROTON         FAIR      14   8  77 N3        30.42R                  
NEW HAVEN      FAIR      14  10  84 CALM      30.44R                  
CHESTER        FAIR      14   7  73 CALM      30.40R                  
MERIDEN        FAIR       9   5  84 MISG      30.44R                  
WILLIMANTIC    FAIR       6   2  83 CALM      30.43R                  
OXFORD         FAIR      15   7  70 NW5       30.39R WCI   8          
$$

MEZ002-015-021-024-NHZ003-005-008-011-012-014-VTZ005-008-221200-
NORTHERN NEW ENGLAND
  
CITY           SKY/WX    TMP DP  RH WIND       PRES   REMARKS
PORTLAND ME    CLOUDY    14   5  67 W7        30.38R WCI   4          
BANGOR ME      FLURRIES  14  10  84 CALM      30.37R                  
CONCORD NH     FAIR       5   0  79 CALM      30.38R                  
MANCHESTER NH  FAIR       8   2  76 SE3       30.37R                  
NASHUA NH      FAIR       6   4  91 CALM      30.40R                  
PORTSMOUTH NH  CLEAR     10   3  75 W5        30.37R WCI   1          
JAFFREY NH     FAIR       2  -2  83 CALM      30.33R                  
KEENE NH       FAIR      -2  -5  87 S3        30.41R                  
BURLINGTON VT  CLOUDY    24  14  65 S7        30.34S WCI  16          
MT. WASHINGTON MOCLDY    10   3  72 NW44        N/A  WCI -15          
$$

NYZ052-076-221200-
EASTERN NEW YORK
  
CITY           SKY/WX    TMP DP  RH WIND       PRES   REMARKS
ALBANY         CLOUDY    21  11  65 S3        30.42R                  
NEW YORK CITY  FAIR      27  13  55 N6        30.44R WCI  20          
$$
 
ANZALL-221200-
MARINE OBSERVATIONS
  
STATION/POSITION TIME  TEMP    WIND        PRES    VSBY  WAVE
                       AIR SEA DIR/SP/G                  HT/PER
                 (UTC) (F)     (DEG/KT/KT) (MB)    (MI)  (FT/S)
BOSTON BUOY      1050   28 42  270/  6/  8 1028.7S         1/11
BUZZARDS BAY     1000   26     340/  5/  5 1029.9F
NANTUCKET SOUND  1040                        N/A           0
MASS BAY-STELLWA 1004   27 41  320/  8/ 12 1027.1F  1 7/8  2/11
ISLE OF SHOALS   1000   23     280/  8/ 10 1028.3F
S OF BLOCK IS    1100      45                N/A           2/ 9
$$

......................KEY.........................
  SKY/WX - SKY CONDITION/PRESENT WEATHER
  TMP    - TEMPERATURE IN FAHRENHEIT
  DWPT   - DEWPOINT IN FAHRENHEIT
  RH     - RELATIVE HUMIDITY IN PERCENT
  WIND   - DIRECTION AND SPEED IN MPH
  PRES   - MEAN SEA LEVEL PRESSURE IN INCHES OF HG
  WCI    - WIND CHILL INDEX
  VSB    - VISIBILITY IN MILES
  HX     - HEAT INDEX
  TC     - TEMPERATURE IN CELSIUS
  VRB    - VARIABLE WIND DIRECTION
  N/A    - NOT AVAILABLE
  
      

Other recent Regional Weather Roundups

Thu Jan 23, 11:00am

Thu Jan 23, 10:10am

Thu Jan 23, 10:00am

Thu Jan 23, 9:10am

Thu Jan 23, 9:00am

Thu Jan 23, 8:10am

Thu Jan 23, 8:00am

Thu Jan 23, 7:10am

Thu Jan 23, 7:01am

Thu Jan 23, 6:10am

Thu Jan 23, 6:00am

Thu Jan 23, 5:10am

Thu Jan 23, 5:00am

Thu Jan 23, 4:10am

Thu Jan 23, 4:01am

Thu Jan 23, 3:10am

Thu Jan 23, 3:00am

Thu Jan 23, 2:10am

Thu Jan 23, 2:00am

Thu Jan 23, 1:10am

Thu Jan 23, 1:00am

Thu Jan 23, 12:10am

Thu Jan 23, 12:00am

Wed Jan 22, 11:10pm

Wed Jan 22, 11:01pm

Wed Jan 22, 10:10pm

Wed Jan 22, 10:00pm

Wed Jan 22, 9:10pm

Wed Jan 22, 9:00pm

Wed Jan 22, 8:10pm

Wed Jan 22, 8:01pm

Wed Jan 22, 7:10pm

Wed Jan 22, 7:00pm

Wed Jan 22, 6:10pm

Wed Jan 22, 6:01pm

Wed Jan 22, 5:10pm

Wed Jan 22, 5:00pm

Wed Jan 22, 4:10pm

Wed Jan 22, 4:00pm

Wed Jan 22, 3:10pm

Wed Jan 22, 3:00pm

Wed Jan 22, 2:10pm

Wed Jan 22, 2:00pm

Wed Jan 22, 1:10pm

Wed Jan 22, 1:00pm

Wed Jan 22, 12:10pm

Wed Jan 22, 12:00pm

Wed Jan 22, 11:10am

Wed Jan 22, 11:00am

Wed Jan 22, 10:10am

Wed Jan 22, 10:01am

Wed Jan 22, 9:10am

Wed Jan 22, 9:00am

Wed Jan 22, 8:10am

Wed Jan 22, 8:00am

Wed Jan 22, 7:10am

Wed Jan 22, 7:00am

Wed Jan 22, 6:00am

Wed Jan 22, 5:10am

Wed Jan 22, 5:00am

Wed Jan 22, 4:10am

Wed Jan 22, 4:00am

Wed Jan 22, 3:10am

Wed Jan 22, 3:01am

Wed Jan 22, 2:10am

Wed Jan 22, 2:00am

Wed Jan 22, 1:10am

Wed Jan 22, 1:00am

Wed Jan 22, 12:10am

Wed Jan 22, 12:00am

Tue Jan 21, 11:10pm

Tue Jan 21, 11:00pm

Tue Jan 21, 10:10pm

Tue Jan 21, 10:00pm

Tue Jan 21, 9:10pm

Tue Jan 21, 9:01pm

Tue Jan 21, 8:10pm

Tue Jan 21, 8:00pm

Tue Jan 21, 7:10pm

Tue Jan 21, 7:00pm

Tue Jan 21, 6:10pm

Tue Jan 21, 6:01pm

Tue Jan 21, 5:10pm

Tue Jan 21, 5:00pm

Tue Jan 21, 4:10pm

Tue Jan 21, 4:00pm

Tue Jan 21, 3:10pm

Tue Jan 21, 3:01pm

Tue Jan 21, 2:10pm

Tue Jan 21, 2:00pm

Tue Jan 21, 1:10pm

Tue Jan 21, 1:00pm

Tue Jan 21, 12:10pm

Tue Jan 21, 12:00pm

Tue Jan 21, 11:10am

Tue Jan 21, 11:00am

Tue Jan 21, 10:10am

Tue Jan 21, 10:00am

Tue Jan 21, 9:10am

Tue Jan 21, 9:00am

Tue Jan 21, 8:10am

Tue Jan 21, 8:00am

Tue Jan 21, 7:10am

Tue Jan 21, 7:00am

Tue Jan 21, 6:10am

Tue Jan 21, 6:00am

Tue Jan 21, 5:10am

Tue Jan 21, 5:00am

Tue Jan 21, 4:10am

Tue Jan 21, 4:00am

Tue Jan 21, 3:10am

Tue Jan 21, 3:00am

Tue Jan 21, 2:10am

Tue Jan 21, 2:01am

Tue Jan 21, 1:10am

Tue Jan 21, 1:00am

Tue Jan 21, 12:10am

Tue Jan 21, 12:00am

Mon Jan 20, 11:10pm

Mon Jan 20, 11:00pm

Mon Jan 20, 10:10pm

Mon Jan 20, 10:00pm

Mon Jan 20, 9:10pm

Mon Jan 20, 9:00pm

Mon Jan 20, 8:10pm

Mon Jan 20, 8:00pm

Mon Jan 20, 7:10pm

Mon Jan 20, 7:00pm

Mon Jan 20, 6:10pm

Mon Jan 20, 6:00pm

Mon Jan 20, 5:10pm

Mon Jan 20, 5:00pm

Mon Jan 20, 4:10pm

Mon Jan 20, 4:01pm

Mon Jan 20, 3:10pm

Mon Jan 20, 3:00pm

Mon Jan 20, 2:10pm

Mon Jan 20, 2:00pm

Mon Jan 20, 1:10pm

Mon Jan 20, 1:00pm

Mon Jan 20, 12:10pm

Mon Jan 20, 12:00pm

Mon Jan 20, 11:10am

Meta data:

ID: e7a2b94c-3802-4851-bc38-6c4704ca40ab
Link: https://api.weather.gov/products/e7a2b94c-3802-4851-bc38-6c4704ca40ab